Weather History for Big Bear City, CA

Change the Weather History Date:

Monday, July 8, 2013

  Actual Average (KBUO) Record (KBUO)
Temperature  
Mean Temperature 62 °F -  
Max Temperature 80 °F 89 °F 93 °F (1996)
Min Temperature 44 °F 58 °F 53 °F (2000)
Degree Days  
Heating Degree Days 3    
Growing Degree Days 12 (Base 50)    
Moisture  
Dew Point 26 °F    
Average Humidity 27    
Maximum Humidity 53    
Minimum Humidity 11    
Precipitation  
Precipitation 0.00 in - - ()
Sea Level Pressure  
Sea Level Pressure 30.31 in    
Wind  
Wind Speed 3 mph (SW)    
Max Wind Speed 13 mph    
Max Gust Speed 21 mph    
Visibility 10 miles    
Events      
Averages and records for this station are not official NWS values.
T = Trace of Precipitation, MM = Missing Value Source: NWS Daily Summary

Daily Weather History Graph

Daily Weather History Graph

Search for Another Location

Airport:

Trip Planner

Search our weather history database for the weather conditions in past years. The results will help you decide how hot, cold, wet, or windy it might be!

Date:

Astronomy

Jul. 08, 2013 Rise Set
Actual Time 5:42 AM PDT 8:02 PM PDT
Civil Twilight 5:13 AM PDT 8:31 PM PDT
Nautical Twilight 4:38 AM PDT 9:06 PM PDT
Astronomical Twilight 3:59 AM PDT 9:45 PM PDT
Moon 6:11 AM PDT (7/8) 8:12 PM PDT (7/8)
Length of Visible Light 15h 17m
Length of Day
14h 19m
New Moon, 0% of the Moon is Illuminated
Jul 8
New Moon
Jul 15
First Quarter
Jul 22
Full
Jul 29
Last Quarter
Aug 6
New

Hourly Weather History & Observations

Time (PDT) Temp. Dew Point Humidity Pressure Visibility Wind Dir Wind Speed Gust Speed Precip Events Conditions
12:15 AM 53.6 °F 26.6 °F 35% 30.24 in 10.0 mi Calm Calm - N/A   Clear
12:35 AM 51.8 °F 26.6 °F 38% 30.25 in 10.0 mi Calm Calm - N/A   Clear
12:55 AM 51.8 °F 26.6 °F 38% 30.25 in 10.0 mi Calm Calm - N/A   Clear
1:15 AM 50.0 °F 28.4 °F 43% 30.24 in 10.0 mi Calm Calm - N/A   Clear
1:35 AM 50.0 °F 26.6 °F 40% 30.25 in 10.0 mi Calm Calm - N/A   Clear
1:55 AM 48.2 °F 26.6 °F 43% 30.25 in 10.0 mi Calm Calm - N/A   Clear
2:15 AM 48.2 °F 26.6 °F 43% 30.25 in 10.0 mi Calm Calm - N/A   Clear
2:35 AM 46.4 °F 24.8 °F 43% 30.25 in 10.0 mi Calm Calm - N/A   Clear
2:55 AM 46.4 °F 26.6 °F 46% 30.25 in 10.0 mi Calm Calm - N/A   Clear
3:15 AM 46.4 °F 26.6 °F 46% 30.25 in 10.0 mi Calm Calm - N/A   Clear
3:55 AM 44.6 °F 28.4 °F 53% 30.25 in 10.0 mi Calm Calm - N/A   Clear
4:15 AM 46.4 °F 28.4 °F 50% 30.25 in 10.0 mi Calm Calm - N/A   Clear
4:35 AM 46.4 °F 28.4 °F 50% 30.25 in 10.0 mi Calm Calm - N/A   Clear
4:55 AM 44.6 °F 26.6 °F 49% 30.26 in 10.0 mi Calm Calm - N/A   Clear
5:15 AM 44.6 °F 26.6 °F 49% 30.26 in 10.0 mi Calm Calm - N/A   Clear
5:35 AM 44.6 °F 26.6 °F 49% 30.27 in 10.0 mi Calm Calm - N/A   Clear
5:55 AM 44.6 °F 26.6 °F 49% 30.27 in 10.0 mi Calm Calm - N/A   Clear
6:15 AM 44.6 °F 26.6 °F 49% 30.28 in 10.0 mi Calm Calm - N/A   Clear
6:35 AM 46.4 °F 28.4 °F 50% 30.28 in 10.0 mi Calm Calm - N/A   Clear
6:55 AM 50.0 °F 32.0 °F 50% 30.29 in 10.0 mi Calm Calm - N/A   Clear
7:15 AM 53.6 °F 35.6 °F 51% 30.30 in 10.0 mi Calm Calm - N/A   Clear
7:35 AM 57.2 °F 37.4 °F 48% 30.30 in 10.0 mi West 3.5 mph - N/A   Clear
7:55 AM 60.8 °F 35.6 °F 39% 30.30 in 10.0 mi Calm Calm - N/A   Clear
8:15 AM 64.4 °F 33.8 °F 32% 30.31 in 10.0 mi West 4.6 mph - N/A   Clear
8:35 AM 68.0 °F 33.8 °F 28% 30.31 in 10.0 mi Calm Calm - N/A   Clear
8:55 AM 71.6 °F 26.6 °F 19% 30.31 in 10.0 mi West 6.9 mph - N/A   Clear
9:15 AM 71.6 °F 23.0 °F 16% 30.31 in 10.0 mi West 6.9 mph - N/A   Clear
9:35 AM 73.4 °F 23.0 °F 15% 30.31 in 10.0 mi West 6.9 mph - N/A   Clear
9:55 AM 75.2 °F 21.2 °F 13% 30.31 in 10.0 mi West 8.1 mph - N/A   Clear
10:15 AM 75.2 °F 19.4 °F 12% 30.31 in 10.0 mi West 9.2 mph - N/A   Clear
10:35 AM 77.0 °F 19.4 °F 12% 30.32 in 10.0 mi West 12.7 mph 16.1 mph N/A   Clear
10:55 AM 78.8 °F 21.2 °F 12% 30.32 in 10.0 mi West 10.4 mph 16.1 mph N/A   Clear
11:15 AM 78.8 °F 23.0 °F 13% 30.32 in 10.0 mi WSW 11.5 mph 19.6 mph N/A   Clear
11:35 AM 78.8 °F 23.0 °F 13% 30.32 in 10.0 mi West 11.5 mph 16.1 mph N/A   Clear
11:55 AM 78.8 °F 21.2 °F 12% 30.33 in 10.0 mi SSW 10.4 mph 17.3 mph N/A   Clear
12:15 PM 78.8 °F 21.2 °F 12% 30.33 in 10.0 mi WSW 9.2 mph - N/A   Clear
12:35 PM 80.6 °F 21.2 °F 11% 30.33 in 10.0 mi SW 10.4 mph 16.1 mph N/A   Clear
12:55 PM 78.8 °F 21.2 °F 12% 30.33 in 10.0 mi SSW 9.2 mph 16.1 mph N/A   Clear
1:15 PM 78.8 °F 21.2 °F 12% 30.33 in 10.0 mi SSW 6.9 mph - N/A   Clear
1:35 PM 78.8 °F 23.0 °F 13% 30.33 in 10.0 mi SSW 5.8 mph 16.1 mph N/A   Clear
1:55 PM 80.6 °F 24.8 °F 13% 30.33 in 10.0 mi South 3.5 mph 17.3 mph N/A   Clear
2:15 PM 80.6 °F 23.0 °F 12% 30.33 in 10.0 mi South 10.4 mph - N/A   Clear
2:35 PM 80.6 °F 24.8 °F 13% 30.33 in 10.0 mi SW 4.6 mph - N/A   Clear
2:55 PM 78.8 °F 24.8 °F 14% 30.33 in 10.0 mi WSW 9.2 mph 17.3 mph N/A   Clear
3:15 PM 80.6 °F 24.8 °F 13% 30.32 in 10.0 mi SW 10.4 mph 20.7 mph N/A   Scattered Clouds
3:35 PM 80.6 °F 23.0 °F 12% 30.32 in 10.0 mi South 9.2 mph 17.3 mph N/A   Scattered Clouds
3:55 PM 78.8 °F 23.0 °F 13% 30.32 in 10.0 mi SW 9.2 mph 17.3 mph N/A   Scattered Clouds
4:15 PM 78.8 °F 24.8 °F 14% 30.32 in 10.0 mi WSW 9.2 mph 18.4 mph N/A   Clear
4:35 PM 80.6 °F 26.6 °F 14% 30.32 in 10.0 mi SW 9.2 mph 17.3 mph N/A   Clear
4:55 PM 78.8 °F 26.6 °F 15% 30.31 in 10.0 mi WSW 9.2 mph 16.1 mph N/A   Clear
5:15 PM 78.8 °F 26.6 °F 15% 30.31 in 10.0 mi SW 6.9 mph - N/A   Clear
5:35 PM 78.8 °F 26.6 °F 15% 30.31 in 10.0 mi SW 5.8 mph - N/A   Clear
5:55 PM 77.0 °F 23.0 °F 13% 30.31 in 10.0 mi WSW 6.9 mph 18.4 mph N/A   Clear
6:15 PM 77.0 °F 23.0 °F 13% 30.31 in 10.0 mi South 8.1 mph - N/A   Clear
6:35 PM 77.0 °F 24.8 °F 14% 30.31 in 10.0 mi SW 6.9 mph - N/A   Clear
6:55 PM 75.2 °F 23.0 °F 14% 30.31 in 10.0 mi SW 8.1 mph - N/A   Clear
7:15 PM 73.4 °F 23.0 °F 15% 30.31 in 10.0 mi WSW 4.6 mph - N/A   Clear
7:35 PM 73.4 °F 26.6 °F 18% 30.31 in 10.0 mi WSW 5.8 mph - N/A   Clear
7:55 PM 71.6 °F 28.4 °F 20% 30.32 in 10.0 mi SW 3.5 mph - N/A   Clear
8:15 PM 69.8 °F 28.4 °F 21% 30.33 in 10.0 mi WSW 3.5 mph - N/A   Clear
8:35 PM 68.0 °F 30.2 °F 24% 30.33 in 10.0 mi Calm Calm - N/A   Clear
8:55 PM 66.2 °F 30.2 °F 26% 30.34 in 10.0 mi West 3.5 mph - N/A   Clear
9:15 PM 64.4 °F 30.2 °F 28% 30.35 in 10.0 mi Calm Calm - N/A   Clear
9:35 PM 62.6 °F 28.4 °F 27% 30.36 in 10.0 mi Calm Calm - N/A   Clear
9:55 PM 60.8 °F 28.4 °F 29% 30.36 in 10.0 mi Calm Calm - N/A   Clear
10:15 PM 59.0 °F 28.4 °F 31% 30.36 in 10.0 mi Calm Calm - N/A   Clear
10:35 PM 59.0 °F 28.4 °F 31% 30.37 in 10.0 mi Calm Calm - N/A   Clear
10:55 PM 55.4 °F 28.4 °F 36% 30.37 in 10.0 mi Calm Calm - N/A   Clear
11:15 PM 55.4 °F 28.4 °F 36% 30.37 in 10.0 mi Calm Calm - N/A   Clear
11:35 PM 55.4 °F 28.4 °F 36% 30.38 in 10.0 mi Calm Calm - N/A   Clear
11:55 PM 55.4 °F 32.0 °F 41% 30.38 in 10.0 mi SW 3.5 mph - N/A   Clear